Location: Namasale
(1.5000°N, 32.6167°E)
Time: 19:29:15
(UTC+00:00)

Vanguard 1 Rocket - Pass Details

Date: 28 April 2021
Orbit: 652 x 4224 km, 34.3° (Epoch: 10 May)

Event Time Altitude Azimuth Distance (km) Brightness Sun altitude
Rises 17:47:54 0° 289° (WNW) 3,440 11.6 -28.7°
Reaches altitude 10° 17:50:02 10° 282° (WNW) 2,722 10.8 -29.3°
Maximum altitude 17:56:15 46° 209° (SSW) 1,800 8.8 -30.7°
Enters shadow 17:59:10 37° 169° (SSE) 2,331 9.1 -31.4°
Drops below altitude 10° 18:07:48 10° 140° (SE) 4,936 - -33.5°
Sets 18:13:13 0° 134° (SE) 6,568 - -34.8°
